MDT,Max TemperatureF,Mean TemperatureF,Min TemperatureF,Max Dew PointF,MeanDew PointF,Min DewpointF,Max Humidity, Mean Humidity, Min Humidity, Max Sea Level PressureIn, Mean Sea Level PressureIn, Min Sea Level PressureIn, Max VisibilityMiles, Mean VisibilityMiles, Min VisibilityMiles, Max Wind SpeedMPH, Mean Wind SpeedMPH, Max Gust SpeedMPH,PrecipitationIn, CloudCover, Events, WindDirDegrees
2013-10-1,63,51,38,39,29,25,70,49,27,29.99,29.91,29.84,10,10,7,23,12,31,0.11,3,Rain,265
2013-10-2,54,45,35,36,33,31,100,72,44,30.11,30.01,29.90,10,10,9,28,11,33,0.01,5,Rain,300
2013-10-3,41,37,32,36,31,28,96,86,76,30.36,30.06,29.89,10,2,0,28,19,33,0.50,8,Fog-Rain-Snow,100
2013-10-4,40,35,30,29,27,24,85,75,64,30.54,30.44,30.29,10,8,2,24,11,32,0.01,6,Snow,110
2013-10-5,51,42,32,32,25,21,69,53,36,30.43,30.36,30.29,10,10,10,33,24,41,0.00,0,,254
2013-10-6,71,58,44,31,28,23,50,36,22,30.28,30.15,30.00,10,10,10,40,23,54,0.00,0,,242
2013-10-7,76,57,37,26,22,17,49,31,13,29.99,29.76,29.60,10,10,10,38,23,47,0.00,0,,231
2013-10-8,56,44,32,38,31,22,89,58,26,29.98,29.80,29.66,10,10,10,24,9,32,0.05,2,Rain,289
2013-10-9,53,40,26,34,30,23,92,69,46,30.10,30.01,29.91,10,10,10,21,8,26,0.00,1,,94
2013-10-10,58,43,27,41,33,24,92,68,43,29.89,29.79,29.69,10,10,10,15,6,22,0.01,6,Rain,255
2013-10-11,53,41,28,33,25,19,70,50,30,30.08,29.96,29.81,10,10,10,22,10,25,0.00,5,,273
2013-10-12,47,34,21,35,26,18,89,69,49,30.18,30.13,30.07,10,10,10,16,5,20,T,2,,96
2013-10-13,39,33,26,34,31,24,96,86,76,30.26,30.16,30.10,10,4,0,12,5,14,0.21,7,Fog-Rain-Snow,57
2013-10-14,40,37,33,34,32,30,96,86,76,30.47,30.27,30.18,10,4,1,21,7,25,0.18,8,Snow,85
2013-10-15,50,38,26,31,28,23,92,69,46,30.46,30.34,30.18,10,9,2,21,11,25,0.00,2,,274
2013-10-16,51,41,31,32,26,20,89,64,38,30.21,30.12,30.06,10,9,2,33,17,40,0.01,4,Snow,277
2013-10-17,45,39,32,34,30,26,89,77,64,30.30,30.19,30.12,10,9,2,21,6,25,0.05,8,Rain,297
2013-10-18,53,43,32,27,26,23,75,54,32,30.29,30.19,30.03,10,10,10,30,16,37,0.00,2,,266
2013-10-19,63,52,40,29,24,22,45,33,21,30.04,29.96,29.86,10,10,10,35,22,44,0.00,2,,261
2013-10-20,56,47,38,34,31,29,70,54,38,30.12,30.07,29.96,10,10,10,20,11,24,T,6,,283
2013-10-21,62,48,33,31,29,27,76,54,32,30.19,30.14,30.08,10,10,10,29,14,35,0.00,2,,276
2013-10-22,69,51,33,30,27,21,82,50,17,30.22,30.13,30.05,10,10,10,28,15,33,0.00,0,,285
2013-10-23,63,46,29,36,29,24,85,56,27,30.27,30.20,30.13,10,10,10,17,6,20,0.00,0,,92
2013-10-24,62,48,34,39,34,29,89,59,29,30.29,30.20,30.09,10,10,10,14,5,16,0.00,3,,244
2013-10-25,68,50,31,30,27,25,82,51,20,30.31,30.21,30.14,10,10,10,21,10,24,0.00,0,,293
2013-10-26,70,50,29,29,25,20,78,47,15,30.30,30.19,29.98,10,10,10,24,14,32,0.00,0,,274
2013-10-27,65,48,31,30,25,18,76,46,16,30.03,29.88,29.72,10,10,8,41,19,53,T,2,Snow,310
2013-10-28,31,26,21,27,21,17,85,80,74,30.23,30.11,30.03,10,5,0,35,25,43,0.01,8,Snow,78
2013-10-29,37,31,24,23,19,17,88,70,52,30.19,30.00,29.84,10,10,3,15,7,17,0.00,5,,24
2013-10-30,49,37,25,28,24,19,81,60,39,29.94,29.91,29.85,10,10,10,33,16,38,0.00,2,,284
2013-10-31,52,44,36,33,28,24,70,55,39,30.02,29.89,29.82,10,10,10,36,22,43,0.00,5,,259